^^
Datos históricos de la estación: Murcia-Puente Tocinos
Diario Informe para Agosto 5, 2019 Unidades:  Métrico    Inglés   Ambas
Diario Semanal Mensual Anual Configurable
  Máximo: Mínimo: Media:
Temperatura: 34.6 °C 24.3 °C 28.5 °C
Punto de rocio: 23.0 °C 20.9 °C 22.3 °C
Humedad: 86% 50% 71%
Velocidad viento: 19.8km/h 0.0km/h 8.7km/h
Racha viento: 37.0km/h - -
Viento- - East
Presión: 1013.0 hPa 1008.9 hPa -
Precipitación: 0.0 mm    
Historical Graphs
 
 
Tabla de datos para Agosto 5, 2019
Hora Temperatura Punto de rocio Presión Viento Velocidad viento Racha viento Humedad Intensidad lluvia(por hora) Nubes
00:04 26.4 °C 21.6 °C 1012.9 hPa NNE 9.5 km/h 14.8 km/h 75% 0.0 mm CLR
00:09 26.3 °C 21.7 °C 1012.9 hPa NE 10.0 km/h 14.8 km/h 76% 0.0 mm CLR
00:14 26.3 °C 21.9 °C 1012.9 hPa ENE 10.0 km/h 14.8 km/h 77% 0.0 mm CLR
00:19 26.2 °C 21.8 °C 1012.9 hPa NE 10.3 km/h 9.3 km/h 77% 0.0 mm CLR
00:24 26.2 °C 21.8 °C 1012.9 hPa NNE 10.3 km/h 11.1 km/h 77% 0.0 mm CLR
00:29 26.2 °C 22.1 °C 1012.9 hPa NE 7.6 km/h 11.1 km/h 78% 0.0 mm CLR
00:34 26.1 °C 21.9 °C 1013.0 hPa NNE 7.6 km/h 13.0 km/h 78% 0.0 mm CLR
00:39 26.1 °C 22.2 °C 1013.0 hPa NE 7.6 km/h 14.8 km/h 79% 0.0 mm CLR
00:44 26.1 °C 22.4 °C 1013.0 hPa NE 7.6 km/h 11.1 km/h 80% 0.0 mm CLR
00:49 26.0 °C 22.3 °C 1013.0 hPa NNE 7.6 km/h 11.1 km/h 80% 0.0 mm CLR
00:54 25.9 °C 22.4 °C 1013.0 hPa NNE 7.6 km/h 13.0 km/h 81% 0.0 mm CLR
00:59 25.9 °C 22.6 °C 1013.0 hPa NE 9.5 km/h 13.0 km/h 82% 0.0 mm CLR
01:04 25.8 °C 22.5 °C 1012.9 hPa NNW 9.5 km/h 14.8 km/h 82% 0.0 mm CLR
01:09 25.8 °C 22.5 °C 1012.9 hPa NE 9.5 km/h 11.1 km/h 82% 0.0 mm CLR
01:14 25.8 °C 22.5 °C 1012.9 hPa NE 9.5 km/h 11.1 km/h 82% 0.0 mm CLR
01:19 25.8 °C 22.7 °C 1012.7 hPa ENE 8.4 km/h 9.3 km/h 83% 0.0 mm CLR
01:24 25.7 °C 22.6 °C 1012.7 hPa NE 8.4 km/h 13.0 km/h 83% 0.0 mm CLR
01:29 25.7 °C 22.6 °C 1012.7 hPa NNE 6.9 km/h 11.1 km/h 83% 0.0 mm CLR
01:34 25.7 °C 22.6 °C 1012.8 hPa NE 6.9 km/h 8.4 km/h 83% 0.0 mm CLR
01:39 25.7 °C 22.6 °C 1012.8 hPa NE 6.9 km/h 9.3 km/h 83% 0.0 mm CLR
01:44 25.7 °C 22.8 °C 1012.8 hPa ENE 6.9 km/h 11.1 km/h 84% 0.0 mm CLR
01:49 25.6 °C 22.7 °C 1012.8 hPa NE 6.9 km/h 11.1 km/h 84% 0.0 mm CLR
01:54 25.6 °C 22.7 °C 1012.8 hPa North 6.9 km/h 9.3 km/h 84% 0.0 mm CLR
01:59 25.6 °C 22.7 °C 1012.8 hPa NNE 7.6 km/h 9.3 km/h 84% 0.0 mm CLR
02:04 25.5 °C 22.6 °C 1012.6 hPa ENE 7.6 km/h 7.4 km/h 84% 0.0 mm CLR
02:09 25.4 °C 22.5 °C 1012.6 hPa NE 5.8 km/h 11.1 km/h 84% 0.0 mm CLR
02:14 25.4 °C 22.7 °C 1012.6 hPa NE 5.8 km/h 9.5 km/h 85% 0.0 mm CLR
02:19 25.3 °C 22.6 °C 1012.5 hPa NE 6.9 km/h 7.6 km/h 85% 0.0 mm CLR
02:24 25.3 °C 22.6 °C 1012.5 hPa NE 6.9 km/h 7.4 km/h 85% 0.0 mm CLR
02:29 25.3 °C 22.6 °C 1012.5 hPa NE 5.8 km/h 9.3 km/h 85% 0.0 mm CLR
02:34 25.2 °C 22.5 °C 1012.4 hPa NNE 5.8 km/h 7.6 km/h 85% 0.0 mm CLR
02:39 25.2 °C 22.5 °C 1012.4 hPa North 6.4 km/h 7.4 km/h 85% 0.0 mm CLR
02:44 25.2 °C 22.5 °C 1012.4 hPa NNE 6.4 km/h 7.4 km/h 85% 0.0 mm CLR
02:49 25.2 °C 22.5 °C 1012.3 hPa NNW 5.0 km/h 7.4 km/h 85% 0.0 mm CLR
02:54 25.2 °C 22.5 °C 1012.3 hPa NNW 5.0 km/h 4.7 km/h 85% 0.0 mm CLR
02:59 25.2 °C 22.5 °C 1012.3 hPa North 3.2 km/h 5.6 km/h 85% 0.0 mm CLR
03:04 25.2 °C 22.5 °C 1012.2 hPa NNW 3.2 km/h 7.4 km/h 85% 0.0 mm CLR
03:09 25.2 °C 22.7 °C 1012.2 hPa North 3.2 km/h 5.6 km/h 86% 0.0 mm CLR
03:14 25.2 °C 22.7 °C 1012.2 hPa NNW 3.2 km/h 7.4 km/h 86% 0.0 mm CLR
03:19 25.2 °C 22.7 °C 1012.2 hPa NNW 3.9 km/h 5.6 km/h 86% 0.0 mm CLR
03:24 25.2 °C 22.7 °C 1012.2 hPa NNW 3.9 km/h 5.6 km/h 86% 0.0 mm CLR
03:29 25.2 °C 22.7 °C 1012.2 hPa NE 2.9 km/h   86% 0.0 mm CLR
03:34 25.2 °C 22.7 °C 1012.0 hPa North 2.9 km/h 4.7 km/h 86% 0.0 mm CLR
03:39 25.2 °C 22.7 °C 1012.0 hPa NNE 2.3 km/h 7.4 km/h 86% 0.0 mm CLR
03:44 25.2 °C 22.7 °C 1012.0 hPa NNW 2.3 km/h 3.7 km/h 86% 0.0 mm CLR
03:49 25.2 °C 22.7 °C 1011.9 hPa NNW 2.9 km/h   86% 0.0 mm CLR
03:54 25.2 °C 22.7 °C 1011.9 hPa NNW 2.9 km/h   86% 0.0 mm CLR
03:59 25.2 °C 22.7 °C 1011.9 hPa Calm   5.6 km/h 86% 0.0 mm CLR
04:04 25.2 °C 22.7 °C 1011.8 hPa Calm     86% 0.0 mm CLR
04:09 25.1 °C 22.6 °C 1011.8 hPa Calm     86% 0.0 mm CLR
04:14 25.1 °C 22.6 °C 1011.8 hPa Calm     86% 0.0 mm CLR
04:19 25.2 °C 22.7 °C 1011.7 hPa Calm     86% 0.0 mm CLR
04:24 25.2 °C 22.7 °C 1011.7 hPa Calm     86% 0.0 mm CLR
04:29 25.1 °C 22.6 °C 1011.7 hPa Calm     86% 0.0 mm CLR
04:34 25.2 °C 22.7 °C 1011.6 hPa Calm     86% 0.0 mm CLR
04:39 25.2 °C 22.7 °C 1011.6 hPa WSW 2.3 km/h 7.4 km/h 86% 0.0 mm CLR
04:44 25.2 °C 22.7 °C 1011.6 hPa South 2.3 km/h 7.4 km/h 86% 0.0 mm CLR
04:49 25.2 °C 22.7 °C 1011.6 hPa South 4.7 km/h 7.4 km/h 86% 0.0 mm CLR
04:54 25.2 °C 22.7 °C 1011.6 hPa South 4.7 km/h 4.7 km/h 86% 0.0 mm CLR
04:59 25.2 °C 22.7 °C 1011.6 hPa SSW 3.9 km/h 9.3 km/h 86% 0.0 mm CLR
05:04 25.2 °C 22.7 °C 1011.5 hPa SSE 3.9 km/h 9.3 km/h 86% 0.0 mm CLR
05:09 25.1 °C 22.6 °C 1011.5 hPa SSE 6.4 km/h 7.4 km/h 86% 0.0 mm CLR
05:14 25.1 °C 22.6 °C 1011.5 hPa SE 6.4 km/h 7.4 km/h 86% 0.0 mm CLR
05:19 25.1 °C 22.6 °C 1011.3 hPa SSW 4.7 km/h 7.4 km/h 86% 0.0 mm CLR
05:24 25.2 °C 22.7 °C 1011.3 hPa SW 4.7 km/h 5.6 km/h 86% 0.0 mm CLR
05:29 25.2 °C 22.7 °C 1011.3 hPa WSW 2.9 km/h 5.8 km/h 86% 0.0 mm CLR
05:34 25.2 °C 22.7 °C 1011.4 hPa WSW 2.9 km/h 7.4 km/h 86% 0.0 mm CLR
05:39 25.3 °C 22.8 °C 1011.4 hPa SSW 2.9 km/h 7.4 km/h 86% 0.0 mm CLR
05:44 25.3 °C 22.8 °C 1011.4 hPa WSW 2.9 km/h 7.4 km/h 86% 0.0 mm CLR
05:49 25.3 °C 22.8 °C 1011.3 hPa WSW 3.9 km/h 7.4 km/h 86% 0.0 mm CLR
05:54 25.3 °C 22.8 °C 1011.3 hPa WSW 3.9 km/h 3.9 km/h 86% 0.0 mm CLR
05:59 25.3 °C 22.8 °C 1011.3 hPa WSW 2.9 km/h   86% 0.0 mm CLR
06:04 25.3 °C 22.8 °C 1011.4 hPa WSW 2.9 km/h   86% 0.0 mm CLR
06:09 25.3 °C 22.6 °C 1011.4 hPa Calm     85% 0.0 mm CLR
06:14 25.3 °C 22.6 °C 1011.4 hPa Calm   7.4 km/h 85% 0.0 mm CLR
06:19 25.3 °C 22.6 °C 1011.5 hPa SSW 2.9 km/h 3.7 km/h 85% 0.0 mm CLR
06:24 25.3 °C 22.6 °C 1011.5 hPa NW 2.9 km/h 7.4 km/h 85% 0.0 mm CLR
06:29 25.2 °C 22.5 °C 1011.5 hPa NW 2.9 km/h   85% 0.0 mm CLR
06:34 25.2 °C 22.5 °C 1011.7 hPa NW 2.9 km/h   85% 0.0 mm CLR
06:39 25.1 °C 22.4 °C 1011.7 hPa Calm     85% 0.0 mm CLR
06:44 25.0 °C 22.3 °C 1011.7 hPa Calm   5.6 km/h 85% 0.0 mm CLR
06:49 24.9 °C 22.2 °C 1011.7 hPa ENE 2.3 km/h   85% 0.0 mm CLR
06:54 24.8 °C 21.9 °C 1011.7 hPa East 2.3 km/h 7.4 km/h 84% 0.0 mm CLR
06:59 24.7 °C 21.8 °C 1011.7 hPa ESE 3.2 km/h 7.4 km/h 84% 0.0 mm CLR
07:04 24.6 °C 21.7 °C 1011.9 hPa East 3.2 km/h 5.6 km/h 84% 0.0 mm CLR
07:09 24.5 °C 21.6 °C 1011.9 hPa East 4.7 km/h 7.4 km/h 84% 0.0 mm CLR
07:14 24.4 °C 21.5 °C 1011.9 hPa ESE 4.7 km/h 7.4 km/h 84% 0.0 mm CLR
07:19 24.4 °C 21.5 °C 1012.1 hPa ESE 5.8 km/h 7.6 km/h 84% 0.0 mm CLR
07:24 24.4 °C 21.5 °C 1012.1 hPa ESE 5.8 km/h 9.3 km/h 84% 0.0 mm CLR
07:29 24.3 °C 21.4 °C 1012.1 hPa ESE 5.8 km/h 9.3 km/h 84% 0.0 mm CLR
07:34 24.3 °C 21.4 °C 1012.4 hPa NNE 5.8 km/h 9.3 km/h 84% 0.0 mm CLR
07:39 24.3 °C 21.4 °C 1012.4 hPa ENE 6.4 km/h 7.4 km/h 84% 0.0 mm CLR
07:44 24.3 °C 21.4 °C 1012.4 hPa NE 6.4 km/h 7.4 km/h 84% 0.0 mm CLR
07:49 24.4 °C 21.5 °C 1012.5 hPa NE 4.7 km/h 7.4 km/h 84% 0.0 mm CLR
07:54 24.4 °C 21.7 °C 1012.5 hPa East 4.7 km/h 9.3 km/h 85% 0.0 mm CLR
07:59 24.4 °C 21.7 °C 1012.5 hPa NE 5.0 km/h 11.1 km/h 85% 0.0 mm CLR
08:04 24.6 °C 21.9 °C 1012.7 hPa East 5.0 km/h 7.4 km/h 85% 0.0 mm CLR
08:09 24.8 °C 22.1 °C 1012.7 hPa ESE 6.4 km/h 13.0 km/h 85% 0.0 mm CLR
08:14 24.9 °C 22.2 °C 1012.7 hPa ESE 6.4 km/h 7.4 km/h 85% 0.0 mm CLR
08:19 25.1 °C 22.2 °C 1012.8 hPa East 6.4 km/h 7.4 km/h 84% 0.0 mm CLR
08:24 25.2 °C 22.1 °C 1012.8 hPa ESE 6.4 km/h 7.6 km/h 83% 0.0 mm CLR
08:29 25.3 °C 22.2 °C 1012.8 hPa ENE 4.7 km/h 7.4 km/h 83% 0.0 mm CLR
08:34 25.5 °C 22.4 °C 1012.8 hPa ENE 4.7 km/h 1.9 km/h 83% 0.0 mm CLR
08:39 25.8 °C 22.5 °C 1012.8 hPa NE 2.9 km/h 6.4 km/h 82% 0.0 mm CLR
08:44 26.0 °C 22.7 °C 1012.8 hPa East 2.9 km/h 7.6 km/h 82% 0.0 mm CLR
08:49 26.2 °C 22.7 °C 1012.9 hPa North 4.7 km/h 7.4 km/h 81% 0.0 mm CLR
08:54 26.3 °C 22.6 °C 1012.9 hPa North 4.7 km/h 6.4 km/h 80% 0.0 mm CLR
08:59 26.3 °C 22.4 °C 1012.9 hPa NE 5.0 km/h 9.3 km/h 79% 0.0 mm CLR
09:04 26.3 °C 22.6 °C 1012.9 hPa NE 5.0 km/h 7.4 km/h 80% 0.0 mm CLR
09:09 26.4 °C 22.4 °C 1012.9 hPa NE 5.8 km/h 7.4 km/h 79% 0.0 mm CLR
09:14 26.4 °C 22.3 °C 1012.9 hPa NE 5.8 km/h 11.1 km/h 78% 0.0 mm CLR
09:19 26.5 °C 22.6 °C 1012.8 hPa North 6.4 km/h 9.3 km/h 79% 0.0 mm CLR
09:24 26.6 °C 22.4 °C 1012.8 hPa ENE 6.4 km/h 9.3 km/h 78% 0.0 mm CLR
09:29 26.7 °C 22.6 °C 1012.8 hPa NE 6.4 km/h 7.4 km/h 78% 0.0 mm CLR
09:34 26.8 °C 22.7 °C 1012.8 hPa NE 6.4 km/h 11.1 km/h 78% 0.0 mm CLR
09:39 26.8 °C 22.7 °C 1012.8 hPa NE 6.9 km/h 14.8 km/h 78% 0.0 mm CLR
09:44 26.7 °C 22.6 °C 1012.8 hPa NNE 6.9 km/h 13.0 km/h 78% 0.0 mm CLR
09:49 26.8 °C 22.7 °C 1012.8 hPa NNE 10.0 km/h 11.1 km/h 78% 0.0 mm CLR
09:54 26.8 °C 22.7 °C 1012.8 hPa North 10.0 km/h 10.0 km/h 78% 0.0 mm CLR
09:59 27.0 °C 22.6 °C 1012.8 hPa NE 8.4 km/h 14.8 km/h 77% 0.0 mm CLR
10:04 27.0 °C 22.6 °C 1013.0 hPa NE 8.4 km/h 13.0 km/h 77% 0.0 mm CLR
10:09 27.1 °C 22.7 °C 1013.0 hPa NE 9.5 km/h 13.0 km/h 77% 0.0 mm CLR
10:14 27.3 °C 22.5 °C 1013.0 hPa ENE 9.5 km/h 11.1 km/h 75% 0.0 mm CLR
10:19 27.4 °C 22.6 °C 1012.9 hPa NE 6.9 km/h 9.3 km/h 75% 0.0 mm CLR
10:24 27.6 °C 22.6 °C 1012.9 hPa NE 6.9 km/h 13.0 km/h 74% 0.0 mm CLR
10:29 27.7 °C 22.7 °C 1012.9 hPa NNE 7.6 km/h 11.9 km/h 74% 0.0 mm CLR
10:34 27.8 °C 22.5 °C 1012.9 hPa ENE 7.6 km/h 7.4 km/h 73% 0.0 mm CLR
10:39 27.9 °C 22.4 °C 1012.9 hPa North 6.4 km/h 13.0 km/h 72% 0.0 mm CLR
10:44 28.1 °C 22.6 °C 1012.9 hPa NE 6.4 km/h 8.4 km/h 72% 0.0 mm CLR
10:49 28.3 °C 22.6 °C 1012.8 hPa NE 6.9 km/h 7.4 km/h 71% 0.0 mm CLR
10:54 28.4 °C 22.4 °C 1012.8 hPa NNE 6.9 km/h 13.0 km/h 70% 0.0 mm CLR
10:59 28.4 °C 22.4 °C 1012.8 hPa NE 6.9 km/h 11.1 km/h 70% 0.0 mm CLR
11:04 28.4 °C 22.4 °C 1012.7 hPa NE 6.9 km/h 9.5 km/h 70% 0.0 mm CLR
11:09 28.5 °C 22.5 °C 1012.7 hPa NE 6.9 km/h 11.9 km/h 70% 0.0 mm CLR
11:15 28.7 °C 22.4 °C 1012.7 hPa NNE 6.9 km/h 9.5 km/h 69% 0.0 mm CLR
11:20 28.7 °C 22.2 °C 1012.9 hPa ENE 6.9 km/h 9.3 km/h 68% 0.0 mm CLR
11:25 28.7 °C 22.2 °C 1012.9 hPa WNW 6.9 km/h 9.3 km/h 68% 0.0 mm CLR
11:30 28.9 °C 22.4 °C 1012.9 hPa NE 5.8 km/h 11.1 km/h 68% 0.0 mm CLR
11:35 29.1 °C 22.3 °C 1012.8 hPa NE 5.8 km/h 9.3 km/h 67% 0.0 mm CLR
11:40 29.2 °C 22.4 °C 1012.8 hPa North 6.4 km/h 7.4 km/h 67% 0.0 mm CLR
11:45 29.3 °C 22.1 °C 1012.8 hPa NNE 6.4 km/h 11.1 km/h 65% 0.0 mm CLR
11:50 29.4 °C 22.1 °C 1012.7 hPa WNW 5.0 km/h 7.4 km/h 65% 0.0 mm CLR
11:55 29.6 °C 22.3 °C 1012.7 hPa NE 5.0 km/h 13.0 km/h 65% 0.0 mm CLR
12:00 29.7 °C 22.2 °C 1012.7 hPa North 6.4 km/h 8.4 km/h 64% 0.0 mm CLR
12:05 29.9 °C 22.3 °C 1012.5 hPa WNW 6.4 km/h 9.3 km/h 64% 0.0 mm CLR
12:10 30.1 °C 22.3 °C 1012.5 hPa NNE 5.8 km/h 9.5 km/h 63% 0.0 mm CLR
12:15 29.9 °C 22.3 °C 1012.5 hPa East 5.8 km/h 16.7 km/h 64% 0.0 mm CLR
12:20 30.0 °C 22.4 °C 1012.4 hPa NNE 8.4 km/h 13.0 km/h 64% 0.0 mm CLR
12:25 30.3 °C 22.4 °C 1012.4 hPa NE 8.4 km/h 7.6 km/h 63% 0.0 mm CLR
12:30 30.4 °C 22.3 °C 1012.4 hPa NE 7.6 km/h 14.8 km/h 62% 0.0 mm CLR
12:35 30.4 °C 22.1 °C 1012.2 hPa North 7.6 km/h 16.7 km/h 61% 0.0 mm CLR
12:40 30.6 °C 22.2 °C 1012.2 hPa NNW 8.7 km/h 14.8 km/h 61% 0.0 mm CLR
12:45 30.6 °C 22.2 °C 1012.2 hPa ENE 8.7 km/h 13.0 km/h 61% 0.0 mm CLR
12:50 30.7 °C 22.3 °C 1012.1 hPa NE 8.7 km/h 14.0 km/h 61% 0.0 mm CLR
12:55 30.8 °C 22.1 °C 1012.1 hPa NW 8.7 km/h 11.1 km/h 60% 0.0 mm CLR
13:00 30.9 °C 22.5 °C 1012.1 hPa NNE 7.6 km/h 11.1 km/h 61% 0.0 mm CLR
13:05 31.1 °C 22.4 °C 1011.9 hPa ENE 7.6 km/h 13.0 km/h 60% 0.0 mm CLR
13:10 31.2 °C 22.2 °C 1011.9 hPa North 8.4 km/h 14.8 km/h 59% 0.0 mm CLR
13:15 31.3 °C 22.6 °C 1011.9 hPa NW 8.4 km/h 5.6 km/h 60% 0.0 mm CLR
13:20 31.6 °C 22.6 °C 1011.8 hPa NE 8.7 km/h 16.7 km/h 59% 0.0 mm CLR
13:25 31.5 °C 22.5 °C 1011.8 hPa NE 8.7 km/h 15.6 km/h 59% 0.0 mm CLR
13:30 31.5 °C 22.5 °C 1011.8 hPa ENE 11.9 km/h 16.7 km/h 59% 0.0 mm CLR
13:35 31.7 °C 22.4 °C 1011.5 hPa NNE 11.9 km/h 18.5 km/h 58% 0.0 mm CLR
13:40 31.9 °C 22.6 °C 1011.5 hPa NE 9.5 km/h 20.4 km/h 58% 0.0 mm CLR
13:45 32.1 °C 22.5 °C 1011.5 hPa NNE 9.5 km/h 14.8 km/h 57% 0.0 mm CLR
13:50 32.3 °C 22.7 °C 1011.2 hPa ENE 10.0 km/h 20.9 km/h 57% 0.0 mm CLR
13:55 32.4 °C 22.5 °C 1011.2 hPa North 10.0 km/h 13.0 km/h 56% 0.0 mm CLR
14:00 32.6 °C 22.7 °C 1011.2 hPa ENE 11.1 km/h 20.9 km/h 56% 0.0 mm CLR
14:05 32.6 °C 22.7 °C 1011.0 hPa East 11.1 km/h 14.8 km/h 56% 0.0 mm CLR
14:10 32.9 °C 22.7 °C 1011.0 hPa NE 10.3 km/h 16.7 km/h 55% 0.0 mm CLR
14:15 33.1 °C 22.6 °C 1011.0 hPa NNE 10.3 km/h 14.8 km/h 54% 0.0 mm CLR
14:20 33.2 °C 22.6 °C 1010.7 hPa NNE 10.3 km/h 17.2 km/h 54% 0.0 mm CLR
14:25 33.3 °C 22.4 °C 1010.7 hPa NE 10.3 km/h 13.0 km/h 53% 0.0 mm CLR
14:30 33.6 °C 22.4 °C 1010.7 hPa NE 10.0 km/h 24.1 km/h 52% 0.0 mm CLR
14:35 33.6 °C 22.4 °C 1010.5 hPa WNW 10.0 km/h 11.1 km/h 52% 0.0 mm CLR
14:40 33.7 °C 22.5 °C 1010.5 hPa ENE 12.2 km/h 24.1 km/h 52% 0.0 mm CLR
14:45 33.7 °C 22.5 °C 1010.5 hPa ENE 12.2 km/h 22.2 km/h 52% 0.0 mm CLR
14:50 33.8 °C 22.6 °C 1010.4 hPa NE 15.6 km/h 18.5 km/h 52% 0.0 mm CLR
14:55 33.8 °C 22.9 °C 1010.4 hPa NNE 15.6 km/h 18.5 km/h 53% 0.0 mm CLR
15:00 34.1 °C 22.8 °C 1010.4 hPa NNE 13.0 km/h 22.2 km/h 52% 0.0 mm CLR
15:05 34.0 °C 22.8 °C 1010.2 hPa ESE 13.0 km/h 22.2 km/h 52% 0.0 mm CLR
15:10 33.8 °C 22.9 °C 1010.2 hPa NNE 15.6 km/h 27.8 km/h 53% 0.0 mm CLR
15:15 33.8 °C 22.9 °C 1010.2 hPa NNW 15.6 km/h 22.2 km/h 53% 0.0 mm CLR
15:20 33.9 °C 22.7 °C 1009.9 hPa ENE 17.2 km/h 27.8 km/h 52% 0.0 mm CLR
15:25 33.9 °C 22.7 °C 1009.9 hPa ENE 17.2 km/h 37.0 km/h 52% 0.0 mm CLR
15:30 33.8 °C 22.9 °C 1009.9 hPa NE 16.4 km/h 29.6 km/h 53% 0.0 mm CLR
15:35 33.7 °C 22.8 °C 1009.9 hPa North 16.4 km/h 29.6 km/h 53% 0.0 mm CLR
15:40 33.8 °C 22.9 °C 1009.9 hPa NNE 19.8 km/h 24.1 km/h 53% 0.0 mm CLR
15:45 33.9 °C 23.0 °C 1009.9 hPa NNE 19.8 km/h 33.3 km/h 53% 0.0 mm CLR
15:50 33.9 °C 22.7 °C 1009.8 hPa ENE 18.3 km/h 22.5 km/h 52% 0.0 mm CLR
15:55 34.0 °C 22.8 °C 1009.8 hPa NE 18.3 km/h 27.8 km/h 52% 0.0 mm CLR
16:00 33.8 °C 22.6 °C 1009.8 hPa NNE 19.8 km/h 33.3 km/h 52% 0.0 mm CLR
16:05 34.1 °C 22.8 °C 1009.7 hPa East 19.8 km/h 25.9 km/h 52% 0.0 mm CLR
16:10 34.2 °C 22.9 °C 1009.7 hPa East 16.4 km/h 24.1 km/h 52% 0.0 mm CLR
16:15 34.3 °C 22.7 °C 1009.7 hPa NE 16.4 km/h 16.1 km/h 51% 0.0 mm CLR
16:20 34.4 °C 22.8 °C 1009.6 hPa SE 13.7 km/h 16.7 km/h 51% 0.0 mm CLR
16:25 34.6 °C 22.7 °C 1009.6 hPa East 13.7 km/h 13.0 km/h 50% 0.0 mm CLR
16:30 34.5 °C 22.6 °C 1009.6 hPa NE 11.9 km/h 13.0 km/h 50% 0.0 mm CLR
16:35 34.6 °C 22.7 °C 1009.5 hPa East 11.9 km/h 20.4 km/h 50% 0.0 mm CLR
16:40 34.4 °C 22.5 °C 1009.5 hPa East 11.1 km/h 13.7 km/h 50% 0.0 mm CLR
16:45 34.2 °C 22.6 °C 1009.5 hPa NE 11.1 km/h 14.8 km/h 51% 0.0 mm CLR
16:50 34.1 °C 22.5 °C 1009.5 hPa NNE 11.9 km/h 22.2 km/h 51% 0.0 mm CLR
16:55 33.8 °C 22.6 °C 1009.5 hPa ENE 11.9 km/h 18.5 km/h 52% 0.0 mm CLR
17:00 33.9 °C 22.7 °C 1009.5 hPa ESE 14.0 km/h 19.0 km/h 52% 0.0 mm CLR
17:05 33.9 °C 22.7 °C 1009.6 hPa NE 14.0 km/h 22.2 km/h 52% 0.0 mm CLR
17:10 33.9 °C 22.7 °C 1009.6 hPa NE 12.2 km/h 7.4 km/h 52% 0.0 mm CLR
17:15 33.9 °C 22.7 °C 1009.6 hPa ESE 12.2 km/h 20.4 km/h 52% 0.0 mm CLR
17:20 33.8 °C 22.6 °C 1009.5 hPa East 11.1 km/h 20.4 km/h 52% 0.0 mm CLR
17:25 33.8 °C 22.6 °C 1009.5 hPa NE 11.1 km/h 20.4 km/h 52% 0.0 mm CLR
17:30 33.6 °C 22.4 °C 1009.5 hPa ENE 11.9 km/h 25.9 km/h 52% 0.0 mm CLR
17:35 33.2 °C 22.6 °C 1009.4 hPa East 11.9 km/h 20.4 km/h 54% 0.0 mm CLR
17:40 33.1 °C 22.2 °C 1009.4 hPa ESE 15.6 km/h 18.5 km/h 53% 0.0 mm CLR
17:45 33.1 °C 22.6 °C 1009.4 hPa NE 15.6 km/h 16.7 km/h 54% 0.0 mm CLR
17:50 33.2 °C 22.3 °C 1009.3 hPa SE 11.9 km/h 20.4 km/h 53% 0.0 mm CLR
17:55 33.2 °C 22.3 °C 1009.3 hPa ENE 11.9 km/h 26.2 km/h 53% 0.0 mm CLR
18:00 33.0 °C 22.4 °C 1009.3 hPa SE 11.1 km/h 18.5 km/h 54% 0.0 mm CLR
18:05 32.9 °C 22.3 °C 1009.3 hPa ENE 11.1 km/h 20.4 km/h 54% 0.0 mm CLR
18:10 32.8 °C 22.6 °C 1009.3 hPa ESE 10.3 km/h 16.7 km/h 55% 0.0 mm CLR
18:15 32.9 °C 22.7 °C 1009.3 hPa North 10.3 km/h 18.3 km/h 55% 0.0 mm CLR
18:20 32.8 °C 22.9 °C 1009.2 hPa ESE 8.7 km/h 11.1 km/h 56% 0.0 mm CLR
18:25 32.8 °C 22.9 °C 1009.2 hPa East 8.7 km/h 18.5 km/h 56% 0.0 mm CLR
18:30 32.6 °C 23.0 °C 1009.2 hPa ENE 10.3 km/h 18.5 km/h 57% 0.0 mm CLR
18:35 32.3 °C 23.0 °C 1009.2 hPa NE 10.3 km/h 18.5 km/h 58% 0.0 mm CLR
18:40 31.9 °C 22.9 °C 1009.2 hPa NE 14.8 km/h 16.1 km/h 59% 0.0 mm CLR
18:45 31.8 °C 22.8 °C 1009.2 hPa NE 14.8 km/h 27.8 km/h 59% 0.0 mm CLR
18:50 31.7 °C 22.7 °C 1009.2 hPa ENE 15.6 km/h 18.5 km/h 59% 0.0 mm CLR
18:55 31.6 °C 22.9 °C 1009.2 hPa NE 15.6 km/h 14.8 km/h 60% 0.0 mm CLR
19:00 31.6 °C 22.6 °C 1009.2 hPa NE 13.7 km/h 22.2 km/h 59% 0.0 mm CLR
19:05 31.4 °C 22.7 °C 1009.2 hPa NE 13.7 km/h 24.1 km/h 60% 0.0 mm CLR
19:10 31.2 °C 22.5 °C 1009.2 hPa NE 16.1 km/h 27.8 km/h 60% 0.0 mm CLR
19:15 31.1 °C 22.4 °C 1009.2 hPa NNE 16.1 km/h 25.9 km/h 60% 0.0 mm CLR
19:20 31.0 °C 22.6 °C 1009.1 hPa NNE 17.2 km/h 25.9 km/h 61% 0.0 mm CLR
19:25 30.9 °C 22.5 °C 1009.1 hPa NE 17.2 km/h 19.8 km/h 61% 0.0 mm CLR
19:30 30.9 °C 21.9 °C 1009.1 hPa NNE 15.6 km/h 29.6 km/h 59% 0.0 mm CLR
19:35 30.7 °C 21.8 °C 1009.1 hPa NNE 15.6 km/h 29.6 km/h 59% 0.0 mm CLR
19:40 30.5 °C 21.8 °C 1009.1 hPa NE 18.0 km/h 25.9 km/h 60% 0.0 mm CLR
19:45 30.4 °C 21.8 °C 1009.1 hPa ENE 18.0 km/h 20.4 km/h 60% 0.0 mm CLR
19:50 30.2 °C 21.8 °C 1009.0 hPa ENE 16.1 km/h 25.9 km/h 61% 0.0 mm CLR
19:55 30.1 °C 21.8 °C 1009.0 hPa North 16.1 km/h 25.9 km/h 61% 0.0 mm CLR
20:00 29.9 °C 21.8 °C 1009.0 hPa NE 18.3 km/h 22.2 km/h 62% 0.0 mm CLR
20:05 29.9 °C 21.8 °C 1008.9 hPa NE 18.3 km/h 25.9 km/h 62% 0.0 mm CLR
20:10 29.7 °C 21.9 °C 1008.9 hPa NE 16.4 km/h 27.8 km/h 63% 0.0 mm CLR
20:15 29.5 °C 21.7 °C 1008.9 hPa North 16.4 km/h 24.1 km/h 63% 0.0 mm CLR
20:20 29.5 °C 21.7 °C 1009.2 hPa NE 17.2 km/h 22.2 km/h 63% 0.0 mm CLR
20:25 29.6 °C 21.8 °C 1009.2 hPa NE 17.2 km/h 24.1 km/h 63% 0.0 mm CLR
20:30 29.4 °C 21.6 °C 1009.2 hPa NE 16.1 km/h 20.4 km/h 63% 0.0 mm CLR
20:35 29.3 °C 21.8 °C 1009.4 hPa ENE 16.1 km/h 20.4 km/h 64% 0.0 mm CLR
20:40 29.2 °C 21.4 °C 1009.4 hPa NE 14.0 km/h 25.9 km/h 63% 0.0 mm CLR
20:45 28.9 °C 21.2 °C 1009.4 hPa NE 14.0 km/h 16.7 km/h 63% 0.0 mm CLR
20:50 28.9 °C 21.2 °C 1009.5 hPa NE 15.6 km/h 22.2 km/h 63% 0.0 mm CLR
20:55 28.8 °C 21.1 °C 1009.5 hPa NE 15.6 km/h 27.8 km/h 63% 0.0 mm CLR
21:00 28.7 °C 20.9 °C 1009.5 hPa NE 16.1 km/h 16.7 km/h 63% 0.0 mm CLR
21:05 28.6 °C 20.9 °C 1009.7 hPa NE 16.1 km/h 18.5 km/h 63% 0.0 mm CLR
21:10 28.6 °C 21.1 °C 1009.7 hPa NNE 13.0 km/h 25.9 km/h 64% 0.0 mm CLR
21:15 28.4 °C 21.2 °C 1009.7 hPa ENE 13.0 km/h 22.2 km/h 65% 0.0 mm CLR
21:20 28.3 °C 21.3 °C 1009.9 hPa NE 14.8 km/h 16.1 km/h 66% 0.0 mm CLR
21:25 28.3 °C 21.3 °C 1009.9 hPa NNE 14.8 km/h 13.0 km/h 66% 0.0 mm CLR
21:30 28.2 °C 21.2 °C 1009.9 hPa NE 11.9 km/h 18.5 km/h 66% 0.0 mm CLR
21:35 28.2 °C 21.2 °C 1010.2 hPa ENE 11.9 km/h 14.8 km/h 66% 0.0 mm CLR
21:40 28.2 °C 21.2 °C 1010.2 hPa NNE 9.5 km/h 11.1 km/h 66% 0.0 mm CLR
21:45 28.2 °C 21.2 °C 1010.2 hPa East 9.5 km/h 11.1 km/h 66% 0.0 mm CLR
21:50 28.3 °C 21.6 °C 1010.5 hPa ESE 6.9 km/h 13.0 km/h 67% 0.0 mm CLR
21:55 28.3 °C 21.6 °C 1010.5 hPa SE 6.9 km/h 18.5 km/h 67% 0.0 mm CLR
22:00 28.1 °C 21.4 °C 1010.5 hPa SE 10.0 km/h 22.2 km/h 67% 0.0 mm CLR
22:05 27.9 °C 21.4 °C 1010.9 hPa NNE 10.0 km/h 16.7 km/h 68% 0.0 mm CLR
22:10 27.8 °C 21.3 °C 1010.9 hPa East 11.9 km/h 16.7 km/h 68% 0.0 mm CLR
22:15 27.8 °C 21.6 °C 1010.9 hPa ESE 11.9 km/h 14.8 km/h 69% 0.0 mm CLR
22:20 27.8 °C 21.8 °C 1011.1 hPa East 10.3 km/h 16.7 km/h 70% 0.0 mm CLR
22:25 27.7 °C 21.9 °C 1011.1 hPa ESE 10.3 km/h 13.0 km/h 71% 0.0 mm CLR
22:30 27.7 °C 21.9 °C 1011.1 hPa SE 9.5 km/h 16.1 km/h 71% 0.0 mm CLR
22:35 27.7 °C 21.9 °C 1011.2 hPa ESE 9.5 km/h 9.3 km/h 71% 0.0 mm CLR
22:40 27.6 °C 21.9 °C 1011.2 hPa East 8.4 km/h 13.0 km/h 71% 0.0 mm CLR
22:45 27.6 °C 22.1 °C 1011.2 hPa East 8.4 km/h 13.0 km/h 72% 0.0 mm CLR
22:50 27.6 °C 22.1 °C 1011.2 hPa East 7.6 km/h 11.1 km/h 72% 0.0 mm CLR
22:55 27.5 °C 22.0 °C 1011.2 hPa ENE 7.6 km/h 8.4 km/h 72% 0.0 mm CLR
23:00 27.4 °C 21.9 °C 1011.2 hPa ENE 5.8 km/h 13.0 km/h 72% 0.0 mm CLR
23:05 27.4 °C 21.9 °C 1011.3 hPa NE 5.8 km/h 9.5 km/h 72% 0.0 mm CLR
23:10 27.3 °C 21.6 °C 1011.3 hPa North 8.7 km/h 9.3 km/h 71% 0.0 mm CLR
23:15 27.2 °C 21.5 °C 1011.3 hPa ENE 8.7 km/h 11.1 km/h 71% 0.0 mm CLR
23:20 27.1 °C 21.6 °C 1011.4 hPa NE 7.6 km/h 13.0 km/h 72% 0.0 mm CLR
23:25 27.1 °C 21.6 °C 1011.4 hPa NE 7.6 km/h 11.1 km/h 72% 0.0 mm CLR
23:30 27.1 °C 21.8 °C 1011.4 hPa NE 8.4 km/h 10.0 km/h 73% 0.0 mm CLR
23:35 26.9 °C 21.9 °C 1011.5 hPa NNE 8.4 km/h 13.0 km/h 74% 0.0 mm CLR
23:40 26.9 °C 22.1 °C 1011.5 hPa NE 8.7 km/h 13.0 km/h 75% 0.0 mm CLR
23:45 26.8 °C 22.2 °C 1011.5 hPa NNE 8.7 km/h 13.7 km/h 76% 0.0 mm CLR
23:50 26.8 °C 22.2 °C 1011.5 hPa NE 8.7 km/h 14.8 km/h 76% 0.0 mm CLR
23:55 26.7 °C 22.3 °C 1011.5 hPa NE 8.7 km/h 10.3 km/h 77% 0.0 mm CLR
Murcia-Puente Tocinos, España
Compliments of Weather Underground - 2.75 mb

La estación de MeteoMurcia.com, publica sus datos en los siguientes proyectos:

Weather Underground PWS IMURCIAP2 Meteoclimatic www.awekas.at

W3Counter
Web Analytics